Location: Essen
(51.4609°N, 7.0127°E)
Time: 13:38:11
(UTC+02:00)

ISS - Pass Details

Date: 10 February 2018
Orbit: 403 x 408 km, 51.6° (Epoch: 22 September)

Event Time Altitude Azimuth Distance (km) Brightness Sun altitude
Rises 18:39:07 0° 284° (WNW) 2,323 1.4 -10.0°
Reaches altitude 10° 18:41:20 10° 273° (W) 1,461 0.4 -10.3°
Maximum altitude 18:44:16 31° 210° (SSW) 741 -2.1 -10.8°
Drops below altitude 10° 18:47:12 10° 146° (SE) 1,461 -1.3 -11.2°
Enters shadow 18:48:26 - 139° (SE) 1,928 -0.7 -11.4°
